Printer-friendly version

IAU Minor Planet Center

Minor Planet Center

MPEC 1999-K35: COMET C/1999 K6 (LINEAR)

The following Minor Planet Electronic Circular may be linked-to from your own Web pages, but must not otherwise be redistributed electronically.


Read MPEC 1999-K34 Read MPEC 1999-K36


M.P.E.C. 1999-K35                                Issued 1999 May 25, 19:39 UT

     The Minor Planet Electronic Circulars contain information on unusual
         minor planets and routine data on comets.  They are published
   on behalf of Commission 20 of the International Astronomical Union by the
          Minor Planet Center, Smithsonian Astrophysical Observatory,
                          Cambridge, MA 02138, U.S.A.

             BMARSDEN@CFA.HARVARD.EDU or GWILLIAMS@CFA.HARVARD.EDU
          URL http://cfa-www.harvard.edu/iau/mpc.html  ISSN 1523-6714

                           COMET C/1999 K6 (LINEAR)

Observations:
    CJ99K060  C1999 05 20.22732 19 01 39.50 +09 26 33.8          17.6 N      704
    CJ99K060  C1999 05 20.23740 19 01 39.43 +09 26 54.7          17.7 N      704
    CJ99K060  C1999 05 20.24736 19 01 39.55 +09 27 13.2          17.9 N      704
    CJ99K060  C1999 05 20.25742 19 01 39.66 +09 27 33.7          17.7 N      704
    CJ99K060  C1999 05 20.26730 19 01 39.55 +09 27 51.6          17.5 N      704
    CJ99K060  C1999 05 21.29751 19 01 41.04 +10 01 03.9          16.2 N      704
    CJ99K060  C1999 05 21.29757 19 01 41.02 +10 01 04.6          16.3 N      704
    CJ99K060  C1999 05 21.30645 19 01 41.34 +10 01 23.5          16.8 N      704
    CJ99K060  C1999 05 21.31750 19 01 41.09 +10 01 44.8          16.2 N      704
    CJ99K060  C1999 05 21.31755 19 01 41.08 +10 01 43.0          15.8 N      704
    CJ99K060  C1999 05 21.32843 19 01 41.02 +10 02 05.8          16.2 N      704
    CJ99K060  C1999 05 21.32848 19 01 41.06 +10 02 05.8          16.0 N      704
    CJ99K060  C1999 05 21.33942 19 01 41.02 +10 02 27.0          15.8 N      704
    CJ99K060  C1999 05 21.33948 19 01 41.04 +10 02 27.3          15.8 N      704
    CJ99K060  C1999 05 24.38194 19 01 36.01 +11 41 01.3          17.4 N      704
    CJ99K060  C1999 05 24.38984 19 01 36.07 +11 41 17.4          17.7 N      704
    CJ99K060  C1999 05 24.39892 19 01 35.95 +11 41 36.0          17.3 N      704
    CJ99K060  C1999 05 24.40805 19 01 35.92 +11 41 53.6          17.9 N      704
    CJ99K060  C1999 05 24.41722 19 01 35.64 +11 42 12.0          18.1 N      704
    CJ99K060  C1999 05 24.89015 19 01 34.01 +11 57 32.8                      557
    CJ99K060  C1999 05 24.89178 19 01 33.98 +11 57 35.5                      557
    CJ99K060  C1999 05 24.89341 19 01 33.97 +11 57 38.6                      557
    CJ99K060  C1999 05 24.94625 19 01 33.72 +11 59 21.1          16.0 T      046
    CJ99K060  C1999 05 24.94784 19 01 33.66 +11 59 24.4                      046
    CJ99K060  C1999 05 24.94904 19 01 33.66 +11 59 26.7                      046
    CJ99K060  C1999 05 24.95027 19 01 33.62 +11 59 29.3                      046
    CJ99K060  C1999 05 24.95160 19 01 33.63 +11 59 32.5                      046
    CJ99K060  C1999 05 25.18689 19 01 32.50 +12 07 17.5          17.7 N      860
    CJ99K060  C1999 05 25.19141 19 01 32.42 +12 07 26.9          17.6 N      860
    CJ99K060  C1999 05 25.19601 19 01 32.49 +12 07 37.3          17.4 N      860
    CJ99K060  C1999 05 25.24154 19 01 32.11 +12 09 04.0          16.6 N      844
    CJ99K060  C1999 05 25.26597 19 01 31.89 +12 09 54.1          15.8 N      844
    CJ99K060  C1999 05 25.27495 19 01 31.86 +12 10 08.7          17.6 N      844

Observer details:
046 Klet.  Observers  M. Tichy, Z. Moravec.  Measurer M. Tichy.  0.57-m f/5.2
    reflector + CCD.
557 Ondrejov.  Observer L. Sarounova.  0.65-m f/3.6 reflector + CCD.
704 Lincoln Laboratory ETS, New Mexico.  Observers M. Blythe, F. Shelly,
    M. Bezpalko, M. Elowitz.  Measurers J. Stuart, H. Viggh, R. Sayer.  1.0-m
    f/2.15 reflector + CCD.
844 Los Molinos.  Observer R. Salvo.  0.35-m f/6.4 reflector + CCD.
860 Valinhos.  Observer P. R. Holvorcem.  0.20-m f/3.3 reflector + CCD.

Orbital elements:
    C/1999 K6 (LINEAR)
T 1999 July 24.130 TT                                   Marsden
q   2.25099              (2000.0)            P               Q
                   Peri.   56.518       +0.293621       +0.692831
                   Node   245.426       -0.920032       +0.391837
e   1.0            Incl.   46.403       +0.259474       +0.605350
From 30 observations 1999 May 20-25.

Ephemeris:
    C/1999 K6 (LINEAR)
Date    TT    R. A. (2000) Decl.     Delta      r     Elong.  Phase   m1    m2
1999 05 22    19 01.68   +10 23.8    1.639    2.364   124.5    20.7  15.8
1999 05 27    19 01.34   +13 06.2    1.600    2.347   126.4    20.3  15.7
1999 06 01    19 00.34   +15 48.7    1.567    2.332   127.9    20.1  15.7
1999 06 06    18 58.71   +18 28.9    1.541    2.317   128.9    19.9  15.6
1999 06 11    18 56.47   +21 04.8    1.522    2.304   129.4    19.9  15.5
1999 06 16    18 53.67   +23 33.9    1.509    2.293   129.4    20.0  15.5
1999 06 21    18 50.39   +25 54.0    1.502    2.283   129.0    20.2  15.5
1999 06 26    18 46.73   +28 03.3    1.502    2.274   128.1    20.6  15.5
1999 07 01    18 42.80   +30 00.3    1.506    2.267   126.8    21.0  15.4
1999 07 06    18 38.74   +31 44.1    1.515    2.261   125.3    21.5  15.4
1999 07 11    18 34.69   +33 14.0    1.529    2.256   123.6    22.1  15.5
1999 07 16    18 30.79   +34 29.8    1.546    2.253   121.7    22.6  15.5
1999 07 21    18 27.22   +35 31.8    1.567    2.251   119.7    23.1  15.5
1999 07 26    18 24.09   +36 20.7    1.591    2.251   117.8    23.5  15.5
1999 07 31    18 21.53   +36 57.4    1.617    2.252   115.8    23.9  15.6
1999 08 05    18 19.63   +37 22.9    1.645    2.255   113.9    24.3  15.6
1999 08 10    18 18.46   +37 38.3    1.674    2.259   112.0    24.6  15.7
1999 08 15    18 18.09   +37 44.7    1.705    2.265   110.2    24.8  15.7
1999 08 20    18 18.54   +37 43.4    1.738    2.272   108.5    25.0  15.8
1999 08 25    18 19.82   +37 35.4    1.771    2.280   106.9    25.1  15.8
1999 08 30    18 21.93   +37 21.9    1.805    2.290   105.4    25.2  15.9
1999 09 04    18 24.85   +37 03.6    1.840    2.301   103.9    25.2  15.9
1999 09 09    18 28.55   +36 41.5    1.876    2.314   102.5    25.2  16.0

1999 09 19    18 38.19   +35 48.7    1.951    2.343    99.9    25.0  16.1
1999 09 29    18 50.49   +34 48.9    2.028    2.377    97.5    24.7  16.3
1999 10 09    19 05.10   +33 46.1    2.111    2.415    95.2    24.3  16.5
1999 10 19    19 21.65   +32 43.9    2.199    2.458    92.8    23.9  16.6
1999 10 29    19 39.76   +31 45.1    2.293    2.505    90.4    23.4  16.8
1999 11 08    19 59.06   +30 51.9    2.396    2.556    87.7    22.8  17.0
1999 11 18    20 19.23   +30 06.2    2.506    2.610    84.9    22.2  17.2
1999 11 28    20 39.96   +29 29.2    2.625    2.668    81.7    21.5  17.4
1999 12 08    21 00.97   +29 01.6    2.753    2.728    78.2    20.7  17.6
1999 12 18    21 22.06   +28 43.9    2.888    2.791    74.5    19.9  17.8
1999 12 28    21 43.03   +28 36.1    3.031    2.856    70.4    18.9  18.0
2000 01 07    22 03.74   +28 37.6    3.179    2.923    66.2    17.9  18.2
2000 01 17    22 24.09   +28 47.8    3.331    2.992    61.7    16.8  18.4
2000 01 27    22 44.00   +29 05.8    3.486    3.063    57.0    15.6  18.6
2000 02 06    23 03.43   +29 30.6    3.640    3.136    52.3    14.4  18.8
2000 02 16    23 22.34   +30 01.2    3.792    3.209    47.5    13.1  19.0
2000 02 26    23 40.72   +30 36.4    3.941    3.284    42.8    11.8  19.1
2000 03 07    23 58.56   +31 15.3    4.083    3.360    38.2    10.5  19.3
2000 03 17    00 15.85   +31 56.9    4.217    3.436    33.9     9.3  19.5
2000 03 27    00 32.58   +32 40.2    4.341    3.514    30.1     8.2  19.6

Brian G. Marsden             (C) Copyright 1999 MPC           M.P.E.C. 1999-K35

Read MPEC 1999-K34 Read MPEC 1999-K36


Our Web policy. Index to the CBAT/MPC/ICQ pages.


Valid HTML 4.01!